AirNav   Free Bose SoundSport
 
 667 users online  

5W4 P K Airpark
Raeford, North Carolina, USA

GOING TO RAEFORD?


FAA INFORMATION EFFECTIVE 28 MARCH 2019

Location

FAA Identifier: 5W4
Lat/Long: 35-01-11.4950N / 079-11-27.6140W
35-01.191583N / 079-11.460233W
35.0198597 / -79.1910039
(estimated)
Elevation: 304 ft. / 92.7 m (surveyed)
Variation: 09W (2020)
From city: 3 miles NE of RAEFORD, NC
Time zone: UTC -4 (UTC -5 during Standard Time)
Zip code: 28376

Airport Operations

Airport use: Open to the public
Activation date: 05/1964
Control tower: no
ARTCC: WASHINGTON CENTER
FSS: RALEIGH FLIGHT SERVICE STATION
NOTAMs facility: RDU (NOTAM-D service available)
Attendance: 0830-DUSK
Wind indicator: lighted
Segmented circle: yes
Beacon: white-green (lighted land airport)
Operates sunset to sunrise.

Airport Communications

CTAF/UNICOM: 123.0
FAYETTEVILLE APPROACH: 127.8
FAYETTEVILLE DEPARTURE: 127.8
WX ASOS at FAY (15 nm E): 121.25 (910-484-1546)
WX ASOS at MEB (16 nm SW): 134.125 (910-844-5338)
WX AWOS-3PT at SOP (16 nm NW): 127.575 (910-692-4287)

Nearby radio navigation aids

VOR radial/distance  VOR name  Freq  Var
FAYr282/15.7FAYETTEVILLE VOR/DME108.8004W
SDZr124/22.7SANDHILLS VORTAC111.8003W

 
NDB name  Hdg/Dist  Freq  Var  ID
MACKALL098/14.527806WHFF .... ..-. ..-.
POPE230/17.033807WPOB .--. --- -...
FORT BRAGG256/19.939307WFGP ..-. --. .--.
ROBESON353/25.235908WRSY .-. ... -.--
DILLON023/35.327409WDLC -.. .-.. -.-.
HARNETT234/35.441708WHQT .... --.- -
BENNETTSVILLE056/35.923008WBES -... . ...

Airport Services

Fuel available: 100LL JET-A+
Parking: tiedowns
Airframe service: NONE
Powerplant service: NONE
Bottled oxygen: NONE
Bulk oxygen: NONE

Runway Information

Runway 4/22

Dimensions: 3402 x 60 ft. / 1037 x 18 m
Surface: asphalt, in excellent condition
Weight bearing capacity: 
Single wheel: 30.0
Runway edge lights: medium intensity
RUNWAY 4  RUNWAY 22
Latitude: 35-00.956983N35-01.426050N
Longitude: 079-11.647300W079-11.273650W
Elevation: 292.0 ft.304.0 ft.
Gradient: 0.3%0.3%
Traffic pattern: leftright
Runway heading: 042 magnetic, 033 true222 magnetic, 213 true
Markings: nonprecision, in good conditionnonprecision, in good condition
Touchdown point: yes, no lightsyes, no lights
Obstructions: 59 ft. trees, 882 ft. from runway, 118 ft. right of centerline, 11:1 slope to clear70 ft. trees, 515 ft. from runway, 127 ft. right of centerline, 4:1 slope to clear
HAS 30 FT TREES 0-200 FT FM THLD OFFSET 112 FT R OF CNTRLN.

Airport Ownership and Management from official FAA records

Ownership: Privately-owned
Owner: BILLIE THACKER
PO DRAWER 1510
RAEFORD, NC 28376
Phone 910-875-3261
Manager: JOEY D'ANNUNZIO
155 AIRPORT DRIVE
RAEFORD, NC 28376
Phone (910) 904-0000

Airport Operational Statistics

Aircraft based on the field: 10
Single engine airplanes: 7
Multi engine airplanes: 3
    
Aircraft operations: avg 88/day *
56% local general aviation
38% military
6% transient general aviation
* for 12-month period ending 13 May 2016

Additional Remarks

CAUTION: LOW FLYING MILITARY ACFT IN AREA; ARPT LCTD WITHIN A MOA.
FREQUENT PARACHUTE ACTIVITY TO TARGET 300' SE OF TERMINAL APRON.
AIRCRAFT IN VICINITY MONITOR 123.5.
FLY ONE MILE DOWN WIND LEG TO PREVENT CONFLICTS WITH PARACHUTE JUMPING ACTIVITY (DROP ZONE SOUTHEAST FROM RY).
AFTER HOURS SERVICE 910-578-4401.
MONITOR FREQ 123.5 FOR PARACHUTE JUMPING ACTIVITY.

Instrument Procedures

NOTE: All procedures below are presented as PDF files. If you need a reader for these files, you should download the free Adobe Reader.

NOT FOR NAVIGATION. Please procure official charts for flight.
FAA instrument procedures published for use from 28 March 2019 at 0901Z to 25 April 2019 at 0900Z.

 
IAPs - Instrument Approach Procedures
RNAV (GPS)-A   download (117KB)
VOR-A   download (136KB)
NOTE: Special Take-Off Minimums/Departure Procedures apply   download (141KB)

Other nearby airports with instrument procedures:

KPOB - Pope Army Airfield (13 nm NE)
KFBG - Simmons Army Airfield (14 nm NE)
KHFF - Mackall Army Airfield (15 nm W)
KFAY - Fayetteville Regional Airport/Grannis Field (15 nm E)
KMEB - Laurinburg-Maxton Airport (16 nm SW)
KSOP - Moore County Airport (16 nm NW)
 
Loc | Ops | Rwys | IFR | FBO | Links
Com | Nav | Svcs | Stats | Notes
Area around 5W4 (P K Airpark)
 
Road maps at: MapQuest Bing Google
 
Aerial photo
WARNING: Photo may not be current or correct
Aerial photo of 5W4 (P K Airpark)
Photo by Kelvin Draughon
Photo taken 25-Dec-2016
looking northeast.

Do you have a better or more recent aerial photo of P K Airpark that you would like to share? If so, please send us your photo.

 
Sectional chart

 
Airport distance calculator
Flying to P K Airpark? Find the distance to fly.

From to 5W4

Sunrise and sunset
Times for 19-Apr-2019
 Local
(UTC-4)
 Zulu
(UTC)
Morning civil twilight06:1410:14
Sunrise06:4110:41
Sunset19:5123:51
Evening civil twilight20:1700:17

Current date and time
Zulu (UTC)  20-Apr-2019 03:49:17
Local (UTC-4)  19-Apr-2019 23:49:17
 
METAR
KPOB 
12nm NE 
200331Z AUTO 18012G18KT 10SM OVC015 20/17 A2957 RMK AO2 CIG 013 RWY23 SLP015 $
KFBG 
15nm NE 
200324Z AUTO 17008KT 10SM SCT014 BKN021 19/19 A2957 RMK AO2 CIG 014V021 SLP015
KHFF 
15nm W 
200338Z AUTO 22015KT 8SM SCT011 OVC039 18/16 A2957 RMK AO2
KFAY 
15nm E 
200304Z 16009KT 10SM BKN016 BKN027 BKN110 19/18 A2958 RMK AO2 T01940183
KSOP 
16nm NW 
200256Z AUTO 17010G18KT 10SM BKN016 OVC022 19/18 A2957 RMK AO2 SLP027 T01890183 58003
KMEB 
17nm SW 
200252Z AUTO 18011G17KT 10SM OVC017 20/18 A2959 RMK AO2 SLP016 T02000178 50001
TAF
KPOB 
12nm NE 
200100Z 2001/2107 16012G18KT 6000 -SHRA BKN018 OVC090 QNH2964INS BECMG 2001/2002 17015G25KT 6000 -SHRA BKN010 QNH2952INS BECMG 2003/2004 19012G18KT 9999 NSW SCT010 BKN025 QNH2955INS BECMG 2012/2013 22015G25KT 9999 SCT030 QNH2972INS BECMG 2016/2017 20015G35KT 9999 BKN050 QNH2978INS BECMG 2023/2024 24006KT 9999 SCT030 BKN060 QNH2986INS TX21/2018Z TN11/2011Z
KFBG 
15nm NE 
200100Z 2001/2107 16012G18KT 6000 -SHRA BKN015 OVC090 QNH2964INS BECMG 2001/2002 17015G25KT 6000 -SHRA BKN010 QNH2952INS BECMG 2003/2004 19012G18KT 9999 NSW SCT010 BKN025 QNH2955INS BECMG 2012/2013 22015G25KT 9999 SCT030 QNH2972INS BECMG 2016/2017 20015G35KT 9999 BKN050 QNH2978INS BECMG 2023/2024 24006KT 9999 SCT030 BKN060 QNH2986INS TX19/2018Z TN11/2011Z
KFAY 
15nm E 
191723Z 1918/2018 17012G25KT P6SM VCTS BKN015 BKN025CB TEMPO 1919/1923 VRB30G45KT 1SM TSRA BKN009 BKN015 BKN025CB FM200600 20014G24KT P6SM SCT050
NOTAMs
Click for the latest NOTAMs
NOTAMs are issued by the DoD/FAA and will open in a separate window not controlled by AirNav.

 

 
 

FBO, Fuel Providers, and Aircraft Ground Support

  
 Business Name 
 
 Contact 
 
 Services / Description 
 
Fuel Prices
 
Comments
  
Skydive Paraclete XP 910-904-0000
no information available

If you are affiliated with Skydive Paraclete XP and would like to show here your services, contact info, web link, logo, and more, click here
100LL Jet A
FS $6.00 $5.50 
 Updated 26-Mar-2019
 
   write
FS=Full service
Update Fuel Prices
 

Aviation Businesses, Services, and Facilities

  
 Business Name 
 
 Contact 
 
 Services / Description 
 
Distance
 
Comments
  
Raeford Aviation 910-875-3261
no information available

If you are affiliated with Raeford Aviation and would like to show here your services, contact info, web link, logo, and more, click here
on airport  
   write
 

Where to Eat: Catering, Restaurants, Food shops

  
 Business Name 
 
 Contact 
 
 Services / Description 
 
Distance
 
Comments
  
Aviators Grill & Pub 910-904-6761
no information available

If you are affiliated with Aviators Grill & Pub and would like to show here your services, contact info, web link, logo, and more, click here
on airport  
   write
 

Would you like to see your business listed on this page?

 If your business provides an interesting product or service to pilots, flight crews, aircraft, or users of the P K Airpark, you should consider listing it here.  To start the listing process, click on the button below
 
Add a business
 

Other Pages about P K Airpark

Update a link
 
Copyright © AirNav, LLC. All rights reserved. Privacy Policy  Contact